Weather History for Crestview, FL

Change the Weather History Date:

Wednesday, November 6, 2013

  Actual Average Record
Temperature  
Mean Temperature 68 °F -  
Max Temperature 82 °F 71 °F 86 °F (1996)
Min Temperature 55 °F 43 °F 24 °F (1991)
Cooling Degree Days 4    
Growing Degree Days 18 (Base 50)    
Moisture  
Dew Point 59 °F    
Average Humidity 75    
Maximum Humidity 93    
Minimum Humidity 51    
Precipitation  
Precipitation 0.00 in - - ()
Sea Level Pressure  
Sea Level Pressure 30.15 in    
Wind  
Wind Speed 3 mph (ESE)    
Max Wind Speed 9 mph    
Max Gust Speed 22 mph    
Visibility 10 miles    
Events      
Averages and records for this station are not official NWS values.
T = Trace of Precipitation, MM = Missing Value Source: NWS Daily Summary

Daily Weather History Graph

Daily Weather History Graph

Search for Another Location

Airport:

Trip Planner

Search our weather history database for the weather conditions in past years. The results will help you decide how hot, cold, wet, or windy it might be!

Date:

Astronomy

Nov. 06, 2013 Rise Set
Actual Time 6:05 AM CST 4:53 PM CST
Civil Twilight 5:40 AM CST 5:18 PM CST
Nautical Twilight 5:11 AM CST 5:47 PM CST
Astronomical Twilight 4:42 AM CST 6:16 PM CST
Moon 9:14 AM CST (11/6) 8:02 PM CST (11/6)
Length of Visible Light 11h 38m
Length of Day
10h 48m
Waxing Crescent, 14% of the Moon is Illuminated
Nov 6
Waxing Crescent
Nov 9
First Quarter
Nov 17
Full
Nov 25
Last Quarter
Dec 2
New

Hourly Weather History & Observations

Time (CST) Temp. Heat Index Dew Point Humidity Pressure Visibility Wind Dir Wind Speed Gust Speed Precip Events Conditions
12:53 AM 55.9 °F - 48.9 °F 77% 30.18 in 10.0 mi ENE 3.5 mph - N/A   Clear
1:53 AM 57.0 °F - 50.0 °F 77% 30.17 in 10.0 mi Calm Calm - N/A   Mostly Cloudy
2:53 AM 57.9 °F - 50.0 °F 75% 30.17 in 10.0 mi Calm Calm - N/A   Mostly Cloudy
3:53 AM 60.1 °F - 52.0 °F 75% 30.17 in 10.0 mi East 5.8 mph - N/A   Overcast
4:53 AM 60.1 °F - 54.0 °F 80% 30.17 in 10.0 mi East 4.6 mph - N/A   Mostly Cloudy
5:53 AM 59.0 °F - 55.0 °F 87% 30.18 in 10.0 mi East 3.5 mph - N/A   Partly Cloudy
6:53 AM 60.1 °F - 57.0 °F 90% 30.19 in 10.0 mi Calm Calm - N/A   Mostly Cloudy
7:18 AM 62.6 °F - 57.2 °F 82% 30.20 in 10.0 mi East 4.6 mph - N/A   Overcast
7:53 AM 64.0 °F - 57.9 °F 80% 30.21 in 10.0 mi East 5.8 mph - N/A   Overcast
8:53 AM 68.0 °F - 60.1 °F 76% 30.21 in 10.0 mi East 9.2 mph - N/A   Overcast
9:09 AM 69.8 °F - 60.8 °F 73% 30.22 in 10.0 mi East 4.6 mph 21.9 mph N/A   Overcast
9:53 AM 72.0 °F - 61.0 °F 68% 30.20 in 10.0 mi Calm Calm - N/A   Mostly Cloudy
10:53 AM 77.0 °F - 62.1 °F 60% 30.18 in 10.0 mi ESE 6.9 mph - N/A   Clear
11:53 AM 79.0 °F - 62.1 °F 56% 30.15 in 10.0 mi SE 8.1 mph - N/A   Clear
12:53 PM 79.0 °F - 62.1 °F 56% 30.12 in 10.0 mi Variable 6.9 mph - N/A   Scattered Clouds
1:53 PM 80.1 °F 81.2 °F 62.1 °F 54% 30.11 in 10.0 mi SSE 3.5 mph - N/A   Overcast
2:53 PM 82.9 °F 84.0 °F 63.0 °F 51% 30.10 in 10.0 mi Variable 3.5 mph - N/A   Overcast
3:53 PM 80.1 °F 81.1 °F 61.0 °F 52% 30.09 in 10.0 mi SSW 4.6 mph - N/A   Mostly Cloudy
4:53 PM 75.0 °F - 63.0 °F 66% 30.10 in 10.0 mi Calm Calm - N/A   Mostly Cloudy
5:53 PM 70.0 °F - 63.0 °F 78% 30.11 in 10.0 mi Calm Calm - N/A   Clear
6:53 PM 68.0 °F - 64.0 °F 87% 30.13 in 10.0 mi Calm Calm - N/A   Mostly Cloudy
7:53 PM 68.0 °F - 64.0 °F 87% 30.12 in 10.0 mi Calm Calm - N/A   Mostly Cloudy
8:53 PM 66.0 °F - 63.0 °F 90% 30.12 in 10.0 mi Calm Calm - N/A   Clear
9:53 PM 64.0 °F - 62.1 °F 93% 30.11 in 9.0 mi Calm Calm - N/A   Clear
10:53 PM 64.9 °F - 62.1 °F 90% 30.10 in 10.0 mi Calm Calm - N/A   Clear
11:53 PM 64.0 °F - 62.1 °F 93% 30.09 in 10.0 mi Calm Calm - N/A   Clear